Location: Atbuku
(36.4936°N, 30.4362°E)
Time: 13:40:52
(UTC+00:00)

Daily predictions for brighter satellites

Satellite Brightness Start Highest point End
(mag) Time Altitude Azimuth Time Altitude Azimuth Time Altitude Azimuth
Cosmos 1271 Rocket 4.1 17:43:44 10° NNE 17:46:54 23° ENE 17:50:02 10° SE
COBE Rocket 3.9 17:42:39 10° S 17:47:17 82° W 17:51:57 10° NNW
Cosmos 1455 3.7 17:44:54 10° NNE 17:47:52 21° ENE 17:50:50 10° SE
MetOp-A 3.9 17:44:54 10° SSE 17:49:14 58° ENE 17:53:58 10° N
S3M 4.4 17:43:58 10° SSW 17:50:07 71° W 17:56:14 10° N
Cosmos 1025 Rocket 3.0 17:49:29 10° S 17:53:44 80° E 17:58:03 10° N
Cosmos 1953 4.4 17:51:39 10° NNW 17:55:04 28° W 17:58:29 10° SSW
Lacrosse 5 2.0 17:50:22 10° NW 17:55:29 74° NE 18:00:34 10° SE
Resurs 1-3 3.7 17:51:12 10° SSE 17:55:32 65° ENE 17:59:53 10° N
OBJECT-B 2.8 17:55:38 10° SSW 17:58:07 26° W 18:00:39 10° NW
Delta 2 Rocket 2.7 17:57:05 10° W 18:00:33 76° S 18:03:52 10° E
Cosmos 1656 4.4 17:57:16 10° N 18:02:20 37° ENE 18:07:13 11° SE
Cosmos 1452 Rocket 3.6 17:58:06 10° S 18:03:15 58° ESE 18:08:24 10° NNE
NOSS 2-1 (C) 4.4 18:04:47 10° NNW 18:09:47 70° ENE 18:16:31 12° SE
Tiangong 1.9 18:09:10 10° W 18:12:08 38° SSW 18:14:28 15° SE
USA 186 4.0 18:13:27 10° SSW 18:15:53 22° W 18:18:24 10° NW
SJ-6B 4.3 18:14:36 10° SSW 18:18:08 35° W 18:21:47 10° NNW
IGS 5A 4.2 18:15:32 10° S 18:19:34 51° W 18:23:36 10° NNW
X-37B 2.8 18:18:03 10° NW 18:20:05 18° NNE 18:22:06 10° ENE
NOSS 2-1 (D) 4.4 18:15:11 10° NNW 18:20:17 83° ENE 18:26:45 13° SSE
BREEZE-M DEB (TANK) 3.2 18:19:56 10° WNW 18:21:59 32° SW 18:24:21 14° SSE
Cosmos 1697 Rocket 4.0 18:18:00 10° N 18:22:38 26° ENE 18:26:22 14° ESE
Cosmos 1980 Rocket 4.2 18:20:02 10° NNE 18:22:48 14° NE 18:25:32 10° E
H-2A R/B 3.4 18:21:20 10° S 18:24:55 41° W 18:28:34 10° NNW
Cosmos 1455 Rocket 3.8 18:21:46 10° NNW 18:25:58 51° W 18:30:09 10° S
Lacrosse 5 rocket 3.5 18:29:55 10° WNW 18:32:41 18° WSW 18:35:33 10° SSW
COSMOS 2406 3.5 18:29:37 10° S 18:35:04 46° ESE 18:40:32 10° NE
Resurs 01 Rocket 1.6 18:32:44 13° SSE 18:36:37 89° E 18:41:06 10° NNW
Cosmos 1833 Rocket 2.7 18:35:26 10° SSW 18:41:02 87° WNW 18:46:42 10° NNE
Cosmos 2184 Rocket 4.3 18:36:15 10° N 18:42:16 51° E 18:46:25 20° SSE
GOES 2 Rocket 4.1 18:38:26 10° SW 18:42:24 31° S 18:44:27 23° SE
Cosmos 1536 Rocket 3.7 18:47:15 10° SSW 18:51:33 72° W 18:55:54 10° N
H-2A R/B 3.5 18:47:41 10° N 18:51:53 41° WNW 18:56:06 10° SW
CARTOSAT-1 3.6 18:52:11 27° SSE 18:54:23 64° ENE 18:58:39 10° N
Cosmos 1703 3.2 18:51:35 15° S 18:54:40 84° W 18:58:32 10° N
Ariane Rocket 3.0 18:51:38 20° SSE 18:55:16 88° W 19:00:24 10° NNW
USA 245 3.6 18:54:42 31° SE 18:56:08 46° ENE 18:59:27 10° N
Cosmos 1741 Rocket 4.0 18:51:24 10° NNW 18:56:44 75° ENE 18:59:42 27° SSE
Cosmos 1606 Rocket 4.4 18:57:47 10° NNE 19:01:44 33° ENE 19:02:42 30° ESE
Molniya-1 4.2 18:58:57 12° SSW 19:02:19 62° ESE 19:11:24 10° NE
ATLAS 2AS CENTAUR R/B 3.5 18:58:14 10° NW 19:04:38 42° WSW 19:09:29 16° S
ASTRO E2 3.4 19:01:39 10° SW 19:04:55 33° S 19:04:55 33° S
SPOT 3 Rocket 3.5 19:03:41 28° SSE 19:06:25 74° ENE 19:11:38 10° N
Terra 2.9 19:05:11 25° E 19:06:34 29° ENE 19:10:40 10° N
ARIANE 5 R/B 4.2 19:06:42 19° E 19:07:35 21° ENE 19:10:50 10° NNE
SPOT 5 3.1 19:07:44 34° ESE 19:08:58 44° ENE 19:13:04 10° N
CZ-4B R/B 3.8 19:13:50 10° NNW 19:15:58 19° WNW 19:18:07 10° WSW
Cosmos 2082 Rocket 2.1 19:13:54 13° SSW 19:19:02 78° ESE 19:24:45 10° NNE
RESURS DK-1 2.8 19:15:41 10° NNW 19:19:43 54° WSW 19:21:02 36° SSW
Cosmos 1850 Rocket 4.4 19:17:15 10° NNW 19:22:20 59° WSW 19:24:50 29° S
Cosmos 2074 Rocket 4.1 19:16:26 10° N 19:22:39 72° W 19:26:38 23° S
Cosmos 1726 Rocket 3.9 19:19:32 10° N 19:23:42 44° E 19:24:10 43° E
Spot 2 Rocket 3.5 19:23:51 41° SSE 19:25:37 73° ENE 19:30:44 10° N
Nadezhda 1 Rocket 3.9 19:22:07 19° S 19:26:35 81° W 19:32:40 10° N
Cosmos 2360 4.1 19:22:01 10° NNW 19:27:47 88° ENE 19:29:57 40° SSE
Helios 1A Rocket 2.8 19:28:48 59° ESE 19:29:20 69° ENE 19:33:25 10° N
GEOS 3 Rocket 3.9 19:28:10 36° S 19:30:04 58° WSW 19:35:07 10° NW
Cosmos 1932 4.3 19:24:01 10° SSW 19:30:11 78° ESE 19:36:29 10° NNE
Cosmos 1328 3.8 19:29:37 47° SSW 19:30:42 76° W 19:34:42 10° N
TIMED 4.4 19:30:21 57° SSE 19:31:05 71° ESE 19:35:25 10° NNE
ASTEX 1 4.4 19:27:54 10° NNE 19:32:10 29° E 19:32:10 29° E
Cosmos 1295 Rocket 4.4 19:30:32 10° N 19:36:45 85° W 19:39:26 36° S
Cosmos 2084 Rocket 3.3 19:33:13 10° NNW 19:37:10 64° NE 19:37:25 62° E
Lacrosse 5 4.1 19:35:06 10° W 19:37:52 15° WSW 19:39:55 12° SW
Cosmos 1900 4.4 19:33:32 10° NNW 19:38:41 76° WSW 19:39:54 51° S
Delta 2 Rocket 4.2 19:39:03 10° W 19:40:57 30° WSW 19:40:57 30° WSW
ERS-1 Rocket 2.9 19:42:07 52° S 19:43:24 88° WSW 19:48:28 10° NNW
ATLAS 5 CENTAUR R/B 4.3 19:45:34 10° WNW 19:49:34 16° W 19:51:22 13° SW
Cosmos 1892 3.2 19:51:38 52° NNE 19:51:38 52° NNE 19:54:37 10° NNE
X-37B 2.8 19:53:05 10° WNW 19:54:15 22° NW 19:54:15 22° NW
Cosmos 2154 Rocket 4.5 19:50:53 10° NNW 19:56:53 54° W 19:59:44 30° SSW
SL-8 R/B 3.8 19:56:46 10° WNW 20:01:22 59° SW 20:01:22 59° SW
Cosmos 1892 Rocket 4.1 20:00:53 45° WSW 20:01:44 52° W 20:06:00 10° N
Cosmos 968 Rocket 3.3 20:00:42 10° NNW 20:05:56 83° WSW 20:06:30 71° S
Cosmos 1697 Rocket 3.5 20:01:29 10° NW 20:06:40 40° WSW 20:08:06 34° SW
Cosmos 1980 Rocket 2.1 20:01:49 10° NNW 20:07:32 85° WSW 20:08:21 66° S
USA 267 3.1 20:03:30 10° NE 20:10:01 66° SE 20:12:16 42° SSW
SL-16 R/B 3.6 20:05:23 10° N 20:10:03 26° ENE 20:11:07 24° ENE
ATLAS 5 CENTAUR R/B 2.4 20:09:31 36° W 20:10:10 39° NW 20:13:54 10° NNE
Cosmos 1626 Rocket 4.2 20:13:01 45° NE 20:13:01 45° NE 20:16:17 10° NNE
SL-8 Rocket 3.9 20:06:12 10° N 20:12:24 74° E 20:13:23 61° SE
Cosmos 1408 4.0 20:14:47 33° NW 20:14:47 33° NW 20:17:20 10° N
Cosmos 2369 3.8 20:10:06 10° NNW 20:15:46 63° WSW 20:16:35 57° SSW
Cosmos 2058 Rocket 3.2 20:11:57 10° N 20:16:04 72° NW 20:16:04 72° NW
In-Cosmos 22 Rocket 4.1 20:17:20 66° SSW 20:18:08 82° W 20:23:36 10° N
Cosmos 2344 4.5 20:12:46 10° NW 20:22:33 81° WSW 20:28:18 40° SSE
SJ 16-02 3.3 20:23:56 10° NNE 20:26:38 20° NE 20:26:38 20° NE
Cosmos 1825 3.7 20:33:23 35° NNW 20:33:23 35° NNW 20:35:46 10° N
Cosmos 2366 rocket 3.9 20:26:23 10° N 20:32:46 89° E 20:33:35 70° S
Cosmos 1867 3.7 20:29:23 10° NW 20:34:38 63° WSW 20:34:38 63° WSW
Cosmos 2218 Rocket 3.9 20:32:42 10° N 20:39:08 82° W 20:39:55 69° SSW
ARIANE 5 R/B 4.0 20:44:14 31° W 20:44:14 31° W 20:47:45 10° NW
Terra 3.4 20:44:04 25° W 20:44:15 25° W 20:48:09 10° NW
Cosmos 2322 Rocket 3.2 20:39:07 10° N 20:44:17 34° ENE 20:44:40 34° ENE
Meteor 1-27 4.1 20:39:35 10° NNW 20:45:08 75° W 20:45:08 75° W
Cosmos 1959 Rocket 4.4 20:43:16 10° NNW 20:49:20 69° W 20:49:51 66° SW
GP-B 4.2 20:45:17 10° NNW 20:49:00 38° WNW 20:49:00 38° WNW
Cosmos 2278 4.1 20:52:08 10° NNW 20:57:25 54° W 20:57:25 54° W
SL-08 R/B 4.4 20:57:23 10° N 21:03:53 78° E 21:04:04 77° ESE
Cosmos 2333 Rocket 4.1 21:00:36 10° N 21:04:47 20° NE 21:06:07 19° ENE
ADEOS Rocket 3.7 21:06:17 51° ESE 21:07:32 57° ENE 21:15:02 10° N
Gbstr 26 Del rocket 4.4 21:16:35 36° NNW 21:16:35 36° NNW 21:20:33 10° NE
Cosmos 2360 Rocket 3.0 21:13:29 10° N 21:18:47 42° ENE 21:18:47 42° ENE
Cosmos-2242 4.5 21:15:51 10° N 21:18:22 35° NNW 21:18:22 35° NNW
Cosmos 1821 Rocket 4.0 21:20:47 10° NNW 21:26:44 70° W 21:26:44 70° W
Cosmos 1833 4.4 21:32:29 64° NNE 21:32:29 64° NNE 21:37:11 10° NNE
CENTAUR R/B 3.7 21:35:22 27° ENE 21:35:22 27° ENE 21:39:05 10° NE
Cosmos 44 4.4 21:35:47 38° N 21:35:47 38° N 21:38:43 10° NNE
ALOS 2 4.1 21:44:13 35° NNW 21:44:13 35° NNW 21:46:48 10° NNW
Nadezhda 3 Rocket 4.5 21:43:20 48° W 21:43:30 48° W 21:49:26 10° N
COSMOS 2428 4.4 21:46:48 10° N 21:51:18 23° ENE 21:52:40 21° ENE
SL-16 R/B 3.3 21:48:58 10° NW 21:52:57 36° WNW 21:52:57 36° WNW
Cosmos 2219 Rocket 3.3 21:49:28 10° N 21:54:40 35° ENE 21:55:00 35° ENE
SJ 16-02 3.5 22:01:54 10° NW 22:03:35 20° NW 22:03:35 20° NW
Cosmos 2221 4.2 22:13:03 10° N 22:15:26 32° NNW 22:15:26 32° NNW
Cosmos 2285 Rocket 4.1 22:19:00 69° ENE 22:19:00 69° ENE 22:25:00 10° NNE
USA 234 3.4 22:22:04 52° ESE 22:23:38 69° NE 22:30:09 10° NW
Cosmos 2322 Rocket 3.7 22:23:19 10° NW 22:26:28 25° WNW 22:26:28 25° WNW
USA 238 DEB 3.9 22:31:21 52° E 22:31:21 52° E 22:37:08 10° NE
USA 238 3.9 22:31:30 52° E 22:31:30 52° E 22:37:16 10° NE
Meteor 1-26 Rocket 4.4 22:31:07 10° N 22:36:44 73° NE 22:36:44 73° NE
Cosmos 1763 Rocket 4.3 22:41:35 44° NW 22:41:35 44° NW 22:45:58 10° N
Cosmos 1153 Rocket 4.4 22:34:57 10° N 22:41:13 82° ENE 22:41:13 82° ENE
Resurs 1-4 Rocket 3.5 22:43:47 10° NE 22:48:00 28° E 22:48:00 28° E
Cosmos 2333 Rocket 2.9 22:43:47 10° NNW 22:48:05 46° WNW 22:48:05 46° WNW
Cosmos 841 Rocket 3.9 22:53:16 59° NNE 22:53:16 59° NNE 22:57:27 10° NNE
Cosmos 1727 Rocket 4.2 22:58:59 60° W 22:58:59 60° W 23:05:12 10° N
Cosmos 1459 Rocket 4.1 22:53:13 10° N 22:59:14 63° E 22:59:36 62° E
Cosmos 2227 Rocket 3.2 23:00:37 36° E 23:00:37 36° E 23:05:24 10° NE
Cosmos 1000 Rocket 4.3 23:00:48 86° E 23:00:48 86° E 23:06:58 10° N
Cosmos 2360 Rocket 4.0 22:58:08 10° NW 23:00:32 19° WNW 23:00:32 19° WNW
CZ-2D R/B 3.0 22:58:46 10° NNE 23:03:21 38° E 23:03:21 38° E
Cosmos 540 Rocket 4.3 23:10:08 40° NW 23:10:08 40° NW 23:14:28 10° N
SL-16 R/B 3.9 23:07:07 20° ESE 23:10:30 33° ENE 23:16:00 10° N
Thor Agena Rocket 3.7 23:06:34 10° NNE 23:11:09 69° NE 23:11:09 69° NE
ADEOS II 3.6 23:10:07 10° NE 23:14:27 26° E 23:14:55 25° ESE
NOSS 3-2 (A) 4.2 23:13:40 34° WNW 23:14:31 36° NW 23:20:10 10° NNE
CENTAUR R/B 3.4 23:22:31 33° WNW 23:23:57 37° NW 23:30:12 10° NNE
Okean 3 Rocket 4.4 23:24:43 48° ENE 23:24:43 48° ENE 23:28:31 10° NNE
Cosmos 2100 Rocket 3.9 23:17:56 10° N 23:24:17 73° W 23:24:35 71° WSW
Cosmos 2123 Rocket 3.8 23:25:28 74° S 23:26:05 86° E 23:32:26 10° N
Cosmos 2173 Rocket 3.9 23:20:20 10° N 23:26:41 74° W 23:27:07 71° SW
ATLAS CENTAUR R/B 4.2 23:28:42 11° ESE 23:28:43 11° ESE 23:30:16 10° E
Cosmos 2297 Rocket 2.1 23:29:19 80° WNW 23:29:21 80° WNW 23:35:01 10° NNE
Cosmos 2237 Rocket 2.8 23:24:02 10° NNW 23:29:34 52° ENE 23:31:24 37° ESE
Cosmos 1725 Rocket 4.1 23:23:33 10° N 23:29:43 66° E 23:31:00 53° SE
Cosmos 2219 3.3 23:33:09 61° ESE 23:33:23 62° ESE 23:38:56 10° NNE
COSMOS 2428 3.4 23:30:18 10° NW 23:34:38 41° WNW 23:34:38 41° WNW
MOS 1 Rocket 4.1 23:35:13 47° ESE 23:36:12 55° ENE 23:41:24 10° N
IDEFIX/ARIANE 42P 3.5 23:33:22 10° NNE 23:38:09 37° E 23:38:55 35° ESE
Cosmos 2219 Rocket 3.6 23:33:39 10° NW 23:36:40 24° WNW 23:36:40 24° WNW
Cosmos 2016 Rocket 3.8 23:36:04 10° N 23:42:12 88° W 23:43:08 67° S
Cosmos 1151 Rocket 3.8 23:45:08 10° NNW 23:48:25 46° NW 23:48:25 46° NW
CZ-4 R/B 3.8 23:47:53 10° N 23:52:49 74° WNW 23:52:53 74° W
Cosmos 1937 Rocket 4.4 23:49:07 10° NNW 23:52:46 34° WNW 23:52:46 34° WNW
